Home   Weather   Paris   Past weeks
Flag for USA

Past Weather in Paris, Virginia, USA — Yesterday and Last 2 Weeks

Now
84 °F

Passing clouds.


Feels Like: 90 °F
Forecast: 99 / 79 °F
Wind: No wind

Location: Reagan National Airport

Current Time: Jul 21, 2019 at 5:38:22 am

Latest Report: Jul 21, 2019 at 4:52 am


Visibility: 10 mi

Pressure: 29.85 "Hg

Humidity: 70%

Dew Point: 73 °F

Location of ParisLocation

Past Weather in Paris — Graph

°F

Paris Temperature Yesterday

Maximum temperature yesterday: 96 °F (at 4:52 pm)
Minimum temperature yesterday: 81 °F (at 5:52 am)
Average temperature yesterday: 90 °F

High & Low Weather Summary for the Past Weeks

 TemperatureHumidityPressure
High96 °F (Jul 20, 4:52 pm)97% (Jul 8, 9:28 am)30.12 "Hg (Jul 8, 9:28 am)
Low68 °F (Jul 9, 4:52 am)36% (Jul 13, 3:52 pm)29.78 "Hg (Jul 11, 5:52 pm)
Average82 °F69%29.94 "Hg
* Reported Jul 6 3:52 am — Jul 21 3:52 am, Paris. Weather by CustomWeather, © 2019

Note: Actual official high and low records may vary slightly from our data, if they occured in-between our weather recording intervals... More about our weather records

Advertising

Paris Weather History for the Previous 24 Hours

Scroll right to see more
 ConditionsComfort  
Time TempWeatherWind HumidityBarometerVisibility
3:52 am
Sun, Jul 21
85 °FPassing clouds.3 mph70%29.86 "Hg10 mi
2:52 am84 °FPassing clouds.No wind72%29.88 "Hg10 mi
1:52 am86 °FPassing clouds.5 mph63%29.88 "Hg10 mi
12:52 am88 °FMostly cloudy.6 mph54%29.87 "Hg10 mi
11:52 pm
Sat, Jul 20
88 °FMostly cloudy.5 mph50%29.87 "Hg10 mi
10:52 pm88 °FPassing clouds.7 mph54%29.86 "Hg10 mi
9:59 pm90 °FPassing clouds.10 mph47%29.88 "Hg10 mi
8:52 pm93 °FPassing clouds.6 mph49%29.85 "Hg10 mi
7:52 pm95 °FScattered clouds.9 mph46%29.85 "Hg10 mi
6:52 pm96 °FScattered clouds.14 mph44%29.85 "Hg10 mi
5:52 pm96 °FScattered clouds.15 mph46%29.85 "Hg10 mi
4:52 pm96 °FScattered clouds.8 mph49%29.85 "Hg10 mi
3:52 pm94 °FScattered clouds.8 mph52%29.85 "Hg10 mi
2:52 pm95 °FScattered clouds.13 mph56%29.86 "Hg10 mi
1:52 pm93 °FPartly sunny.7 mph54%29.88 "Hg10 mi
12:52 pm95 °FBroken clouds.6 mph54%29.90 "Hg10 mi
11:52 am94 °FPartly sunny.9 mph54%29.94 "Hg10 mi
10:52 am93 °FPartly sunny.12 mph58%29.95 "Hg10 mi
9:52 am91 °FScattered clouds.10 mph57%29.94 "Hg10 mi
8:52 am89 °FScattered clouds.5 mph61%29.94 "Hg10 mi
7:52 am85 °FScattered clouds.6 mph70%29.94 "Hg10 mi
6:52 am82 °FScattered clouds.6 mph74%29.94 "Hg10 mi
5:52 am81 °FPassing clouds.3 mph77%29.95 "Hg10 mi
Weather by CustomWeather, © 2019

See weather overview